#timestamp,LO_Frequency,Hit 
1499122815.5,286047010.6,N
1499122835.3,286047010.6,N
1499122855.1,286047010.1,N
1499122875.9,286047010.3,N
1499122895.7,286047007.7,N
1499122915.6,286047007.7,N
1499122935.4,286047010.2,N
1499122955.2,286047009.3,N
1499122975.1,286047010.0,N
1499122976.0,286047010.0,N
1499122995.8,286047009.8,N
1499123015.6,286047010.0,N
1499123035.5,286047007.7,N
1499123055.3,286047008.2,N
1499123075.2,286047010.4,N
1499123095.9,286047011.7,N
1499123115.7,286047011.8,N
1499123135.6,286047012.4,N
1499123155.4,286047011.0,N
1499123175.2,286047011.0,N
1499123195.1,286047011.6,N
1499123215.2,286047012.0,N
1499123235.0,286047009.9,N
1499123235.9,286047009.9,N
1499123255.7,286047009.9,N
1499123275.6,286047011.9,N
1499123295.4,286047012.3,N
1499123315.3,286047009.6,N
1499123335.1,286047010.2,N
1499123355.8,286047009.5,N
1499123375.7,286047011.5,N
1499123395.5,286047012.1,N
1499123415.4,286047010.0,N
1499123435.2,286047010.3,N
1499123455.0,286047010.4,N
1499123455.9,286047010.4,N
1499123475.8,286047010.8,N
1499123495.6,286047010.3,N
1499123515.4,286047009.7,N
1499123535.3,286047009.7,N
1499123555.1,286047010.0,N
1499123575.9,286047010.5,N
1499123595.7,286047009.5,N
1499123615.5,286047009.9,N
1499123635.4,286047010.6,N
1499123655.2,286047010.1,N
1499123675.0,286047012.0,N
1499123676.0,286047012.0,N
1499123695.8,286047012.3,N
1499123715.6,286047010.3,N
1499123735.5,286047010.6,N
1499123755.3,286047010.5,N
1499123775.1,286047012.4,N
1499123795.9,286047012.4,Y
1499123815.7,286047003.8,N
1499123835.7,286047003.2,N
1499123855.5,286047004.0,N
1499123875.3,286047004.4,N
1499123895.2,286047001.5,N
1499123915.0,286047002.5,N
1499123915.9,286047002.5,N
1499123935.7,286047004.0,N
1499123955.6,286047004.2,N
1499123975.6,286047001.6,N
1499123995.4,286047002.0,N
1499124015.3,286047001.7,N
1499124035.1,286047001.9,N
1499124055.9,286047001.3,N
1499124075.7,286047004.4,N
1499124095.5,286047003.2,N
1499124115.4,286047003.1,N
1499124135.2,286047002.9,N
1499124155.0,286047005.6,N
1499124155.9,286047005.6,N
1499124175.8,286047003.4,N
1499124195.6,286047003.9,N
1499124215.5,286047004.4,N
1499124235.3,286047003.8,N
1499124255.1,286047001.3,N
1499124275.9,286047001.5,N
1499124295.7,286047000.3,N
1499124315.5,286046999.9,N
1499124335.4,286047000.0,N
1499124355.2,286047002.4,N
1499124375.1,286046999.9,N
1499124376.0,286046999.9,N
1499124395.8,286047000.2,N
1499124415.6,286047000.1,N
1499124435.5,286047000.8,N
1499124455.3,286047000.7,N
1499124475.1,286047001.0,N
1499124495.9,286047000.7,N
1499124515.7,286047000.7,N
1499124535.6,286047001.2,N
1499124555.4,286047000.8,N
1499124575.2,286047000.6,N
1499124595.1,286046999.3,N
1499124596.0,286046999.3,N
1499124615.8,286046998.4,N
1499124635.6,286046999.3,N
1499124655.5,286046997.0,N
1499124675.3,286046997.0,N
1499124695.2,286046997.4,N
1499124715.0,286046995.0,N
1499124715.9,286046995.0,N
1499124735.7,286046995.7,N
1499124755.6,286046993.4,N
1499124775.4,286046993.7,N
1499124795.3,286046993.5,N
1499124815.1,286046994.0,N
1499124835.8,286046994.4,N
1499124855.7,286046986.3,N
1499124875.5,286046993.6,N
1499124895.4,286046991.7,N
1499124915.2,286046994.2,N
1499124935.0,286046994.0,N
1499124935.9,286046994.0,N
1499124955.8,286046992.2,N
1499124975.6,286046994.6,N
1499124995.4,286046991.7,N
1499125015.3,286046992.9,N
1499125035.1,286046993.1,N
1499125055.9,286046990.2,N
1499125075.7,286046993.1,N
1499125095.5,286046993.2,N
1499125115.4,286046993.1,N
1499125135.2,286046990.6,N
1499125155.0,286046990.2,N
1499125155.9,286046990.2,N
1499125175.8,286046990.9,N
1499125195.6,286046990.7,N
1499125215.5,286046991.3,N
1499125235.3,286046989.0,N
1499125255.1,286046991.1,N
1499125275.9,286046989.0,N
1499125295.7,286046986.3,N
1499125315.5,286046988.8,N
1499125335.4,286046989.3,N
1499125355.2,286046987.1,N
1499125375.0,286046989.8,N
1499125375.9,286046989.8,N
1499125395.8,286046988.8,N
1499125415.6,286046989.8,N
1499125435.5,286046989.6,N
1499125455.3,286046987.3,N
1499125475.1,286046989.5,N
1499125495.9,286046989.6,N
1499125515.7,286046989.6,N
1499125535.5,286046989.7,N
1499125555.4,286046987.2,N
1499125575.2,286046988.2,N
1499125595.1,286046988.2,N
1499125596.0,286046988.2,N
1499125615.8,286046985.3,N
1499125635.6,286046988.2,N
1499125655.5,286046990.0,N
1499125675.3,286046987.3,N
1499125695.1,286046989.8,N
1499125715.9,286046990.0,N
1499125735.7,286046986.9,N
1499125755.6,286046987.4,N
1499125775.4,286046986.9,N
1499125795.2,286046987.6,N
1499125815.1,286046989.2,N
1499125816.0,286046989.2,N
1499125835.8,286046991.2,N
1499125855.6,286046991.4,N
1499125875.5,286046991.1,N
1499125895.3,286046992.5,N
1499125915.2,286046993.0,N
1499125935.9,286046990.2,N
1499125955.7,286046990.6,N
1499125975.6,286046991.0,N
1499125995.4,286046988.5,N
1499126015.2,286046991.1,N
1499126035.1,286046990.2,N
1499126036.0,286046990.2,N
1499126055.8,286046993.1,N
1499126075.7,286046992.9,N
1499126095.5,286046992.0,N
1499126115.3,286046992.1,N
1499126135.2,286046994.8,N
1499126155.0,286046994.5,N
1499126155.9,286046994.5,N
1499126175.7,286046994.0,N
1499126195.6,286046993.7,N
1499126215.4,286046994.1,N
1499126235.3,286046996.1,N
1499126255.1,286046996.3,N
1499126256.0,286046996.3,N
1499126275.8,286046993.6,N
1499126295.7,286046993.5,N
1499126315.5,286046993.4,N
1499126335.3,286046993.6,N
1499126355.2,286046993.4,N
1499126375.0,286046993.7,N
1499126375.9,286046993.7,N
1499126395.8,286046994.5,N
